Sultan Azlan Shah Airport
WMKI : now visible

Airfield :











YOU CAN JOIN US ON...

 
LOGIN :

Register | Disclaimer

   EN    FR    IT 

 









Legend :    VFR   Marginal VFR   IFR   Intensive IFR   Very Intensive IFR
Visi :
Ceiling :
>= 8 km
>= 3000ft
5 to 8 km
1000 to 3000 ft
1500m to 5 km
500 to 1000 ft
800 to 1500m
200 to 500 ft
< 800m
< 200 ft
Symbols :   Thunderstorms  Fog  Heavy snow  Heavy precipitations  Wind > 20 kt






- Airport Elevation : 130 ft
- IATA code : IPH


WMKI - Sultan Azlan Shah

CURRENT METAR :
  • 131600Z 06003KT 010V100 8000 FEW027 27/24 Q1010

EXPIRED METARs :
  • 131500Z 00000KT 8000 FEW027 27/25 Q1010
  • 131400Z VRB01KT 8000 FEW027 27/25 Q1010

TAF TAF WMKI
Valid from the 13 at 12:00 until the 14 at 12:00 UTC


131100Z 1312/1412 VRB03KT 9999 FEW026
BECMG 1402/1404 21005KT 9000 FEW020
TEMPO 1407/1411 6000 -TSRA FEW010 FEW017CB
WMFC FIR / Asia



MET'MAP, your aeronautical weather chart ! - Copyright ORBIFLY December 2007 - Disclaimer

ORBIFLY MET'MAP TEAM :

Programming & Development : Alexandra Zaïnal
Concept & original design : Baudouin d'Aumeries
Assistance for programming : Marc-Olivier Méhu
Technical & hardware support : Manuel Goepfert

Contact : metmap@orbifly.com




SOURCES & CREDITS :

   NOAA       Earth
Advisory